FW2861 Weather Reports


time (UTC)temp
F
wind
direction
speed
knots
gust
knots
rain 1hr
in
rain 24hr
in
rain mn
in
humidity
%
barometer
mb
20240613074814 61 0 0.0 5.2 0.00 0.00 0.00 88 1011.9
20240613074313 61 278 0.0 2.6 0.00 0.00 0.00 89 1012.1
20240613073813 61 180 0.0 2.6 0.00 0.00 0.00 89 1012.0
20240613073313 61 187 0.9 2.6 0.00 0.00 0.00 89 1012.0
20240613072813 61 160 0.0 2.6 0.00 0.00 0.00 89 1012.2
20240613072314 61 246 0.0 3.5 0.00 0.00 0.00 88 1012.2
20240613071808 62 303 0.0 4.3 0.00 0.00 0.00 87 1012.0
20240613071306 62 203 0.0 5.2 0.00 0.00 0.00 86 1012.0
20240613070807 62 243 0.0 5.2 0.00 0.00 0.00 86 1012.5
20240613070308 61 111 0.0 4.3 0.00 0.00 0.00 87 1011.9
20240613065807 62 276 0.0 4.3 0.00 0.00 0.00 87 1012.0
20240613065306 62 270 0.9 3.5 0.00 0.00 0.00 87 1011.9
20240613064807 62 241 2.6 2.6 0.00 0.00 0.00 87 1012.1
20240613064306 62 173 0.0 2.6 0.00 0.00 0.00 86 1011.8
20240613063806 62 57 1.7 2.6 0.00 0.00 0.00 85 1011.9
20240613063308 63 186 1.7 3.5 0.00 0.00 0.00 84 1011.7
20240613062806 63 276 0.0 3.5 0.00 0.00 0.00 82 1012.2
20240613062530 63 66 0.0 2.6 0.00 0.00 0.00 80 1012.1
20240613061806 63 151 0.0 2.6 0.00 0.00 0.00 80 1012.1
20240613061306 64 85 0.0 3.5 0.00 0.00 0.00 80 1012.1
20240613060807 64 71 1.7 3.5 0.00 0.00 0.00 80 1012.0
20240613060306 64 180 0.0 3.5 0.00 0.00 0.00 81 1012.2
20240613055807 64 279 0.0 4.3 0.00 0.00 0.00 81 1012.3
20240613055530 64 188 0.0 4.3 0.00 0.00 0.00 81 1012.3
20240613054806 64 203 2.6 4.3 0.00 0.00 0.00 81 1012.1
20240613054306 64 60 0.0 4.3 0.00 0.00 0.00 82 1012.2
20240613053806 65 215 2.6 4.3 0.00 0.00 0.00 82 1012.1
20240613053307 65 114 0.0 5.2 0.00 0.00 0.00 79 1012.2
20240613052806 66 243 1.7 5.2 0.00 0.00 0.00 77 1012.1
20240613052530 65 154 1.7 3.5 0.00 0.00 0.00 76 1012.2
20240613052030 65 172 0.0 3.5 0.00 0.00 0.00 76 1012.1
20240613051308 66 74 0.9 3.5 0.00 0.00 0.00 76 1012.2
20240613050808 66 28 0.0 5.2 0.00 0.00 0.00 76 1012.2
20240613050307 66 117 1.7 5.2 0.00 0.00 0.00 76 1012.3
20240613045806 66 311 0.0 3.5 0.00 0.00 0.00 76 1012.2
20240613045301 66 236 0.0 3.5 0.00 0.00 0.00 76 1012.3
20240613044804 66 152 0.0 2.6 0.00 0.00 0.00 76 1012.5
20240613044529 66 81 0.0 5.2 0.00 0.00 0.00 76 1012.3
20240613043801 66 114 0.0 7.0 0.00 0.00 0.00 78 1012.2
20240613043302 66 195 1.7 7.0 0.00 0.00 0.00 78 1012.0
20240613042804 67 240 2.6 5.2 0.00 0.00 0.00 75 1012.3
20240613042306 67 235 3.5 4.3 0.00 0.00 0.00 77 1012.1
20240613041802 67 216 0.0 7.0 0.00 0.00 0.00 77 1012.1
20240613041523 67 241 0.0 7.0 0.00 0.00 0.00 78 1012.2
20240613040807 67 204 1.7 4.3 0.00 0.00 0.00 78 1012.2
20240613040520 67 232 3.5 4.3 0.00 0.00 0.00 79 1012.5
20240613035802 66 233 2.6 4.3 0.00 0.00 0.00 80 1012.2
20240613035301 66 240 0.0 3.5 0.00 0.00 0.00 81 1012.2
20240613034801 66 240 2.6 2.6 0.00 0.00 0.00 81 1012.1
20240613034301 66 270 0.0 6.1 0.00 0.00 0.00 81 1011.9
20240613033802 66 185 0.0 6.1 0.00 0.00 0.00 81 1012.1
20240613033301 66 192 2.6 7.0 0.00 0.00 0.00 81 1012.1
20240613032804 66 210 1.7 7.8 0.00 0.00 0.00 81 1011.9
20240613032305 67 264 2.6 7.8 0.00 0.00 0.00 80 1012.1
20240613031803 67 233 3.5 6.1 0.00 0.00 0.00 80 1011.9
20240613031301 67 249 1.7 5.2 0.00 0.00 0.00 80 1011.9
20240613030801 66 243 1.7 6.1 0.00 0.00 0.00 80 1011.9
20240613030301 66 255 2.6 6.1 0.00 0.00 0.00 80 1011.8
20240613025804 66 266 2.6 4.3 0.00 0.00 0.00 80 1011.6
20240613025302 66 233 1.7 4.3 0.00 0.00 0.00 80 1011.9
20240613024803 66 132 0.0 4.3 0.00 0.00 0.00 80 1011.9
20240613024301 67 194 0.0 2.6 0.00 0.00 0.00 80 1011.6
20240613023803 67 147 1.7 2.6 0.00 0.00 0.00 80 1011.7
20240613023301 67 229 0.0 3.5 0.00 0.00 0.00 79 1011.7
20240613022806 67 221 0.0 3.5 0.00 0.00 0.00 79 1011.7
20240613022305 67 173 0.0 2.6 0.00 0.00 0.00 79 1011.9
20240613021805 67 354 1.7 3.5 0.00 0.00 0.00 78 1011.6
20240613021302 67 99 0.0 3.5 0.00 0.00 0.00 77 1011.5
20240613020804 68 180 0.0 2.6 0.00 0.00 0.00 76 1011.5
20240613020301 68 183 2.6 6.1 0.00 0.00 0.00 76 1011.8
20240613015804 69 195 0.0 6.1 0.00 0.00 0.00 75 1011.4
20240613015305 69 187 0.0 5.2 0.00 0.00 0.00 75 1011.7
20240613014803 69 105 1.7 4.3 0.00 0.00 0.00 75 1011.5
20240613014302 69 96 0.0 5.2 0.00 0.00 0.00 74 1011.4
20240613013801 69 66 0.0 5.2 0.00 0.00 0.00 74 1011.4
20240613013301 69 60 1.7 5.2 0.00 0.00 0.00 74 1011.6
20240613012807 69 234 1.7 4.3 0.00 0.00 0.00 74 1011.2
20240613012301 69 180 1.7 5.2 0.00 0.00 0.00 74 1011.4
20240613012027 69 299 0.0 5.2 0.00 0.00 0.00 74 1011.2
20240613011303 69 143 0.0 4.3 0.00 0.00 0.00 74 1011.2
20240613010802 69 80 1.7 3.5 0.00 0.00 0.00 74 1011.0
20240613010524 69 180 0.0 3.5 0.00 0.00 0.00 74 1011.0
20240613010244 69 90 0.0 4.3 0.00 0.00 0.00 74 1010.9
20240613005301 70 206 1.7 4.3 0.00 0.00 0.00 73 1010.8
20240613004804 70 229 0.0 4.3 0.00 0.00 0.00 73 1010.6
20240613004301 70 63 0.0 3.5 0.00 0.00 0.00 72 1010.8
20240613003805 70 83 1.7 3.5 0.00 0.00 0.00 72 1010.7
20240613003302 70 109 1.7 3.5 0.00 0.00 0.00 72 1011.1
20240613002803 71 168 0.0 4.3 0.00 0.00 0.00 71 1010.8
20240613002747 71 90 0.0 4.3 0.00 0.00 0.00 70 1010.7
20240613001804 71 81 0.0 5.2 0.00 0.00 0.00 70 1010.6
20240613001303 71 90 0.0 6.1 0.00 0.00 0.00 69 1010.6
20240613000804 71 74 0.0 6.1 0.00 0.00 0.00 69 1010.5
20240613000303 72 203 0.9 5.2 0.00 0.00 0.00 68 1010.5
20240612235805 72 84 0.0 5.2 0.00 0.00 0.00 68 1010.5
20240612235301 72 150 0.0 7.0 0.00 0.00 0.00 68 1010.7
20240612234803 72 85 0.0 7.0 0.00 0.00 0.00 67 1010.6
20240612234301 73 188 0.0 6.1 0.00 0.00 0.00 67 1010.6
20240612233806 73 214 1.7 6.1 0.00 0.00 0.00 66 1010.7
20240612233301 73 180 2.6 5.2 0.00 0.00 0.00 66 1010.7
20240612232803 73 101 1.7 9.6 0.00 0.00 0.00 66 1010.8
20240612232301 73 227 2.6 9.6 0.00 0.00 0.00 66 1010.6
20240612232245 73 294 0.9 5.2 0.00 0.00 0.00 66 1010.4
20240612231302 73 33 0.0 6.1 0.00 0.00 0.00 65 1010.7
20240612230803 74 176 1.7 6.1 0.00 0.00 0.00 65 1010.3
20240612230302 74 257 1.7 6.1 0.00 0.00 0.00 65 1010.3
20240612225801 74 84 6.1 6.1 0.00 0.00 0.00 65 1010.6
20240612225301 74 36 2.6 6.1 0.00 0.00 0.00 65 1010.3
20240612224803 74 60 0.0 7.0 0.00 0.00 0.00 64 1010.3
20240612224301 74 98 2.6 7.0 0.00 0.00 0.00 64 1010.5
20240612223801 75 100 0.0 5.2 0.00 0.00 0.00 64 1010.6
20240612223301 74 103 0.0 5.2 0.00 0.00 0.00 63 1010.4
20240612222807 74 107 2.6 5.2 0.00 0.00 0.00 63 1010.5
20240612222306 74 39 5.2 5.2 0.00 0.00 0.00 62 1010.5
20240612221803 74 84 1.7 5.2 0.00 0.00 0.00 63 1010.4
20240612221301 74 279 0.0 6.1 0.00 0.00 0.00 64 1010.3
20240612221244 74 103 3.5 10.4 0.00 0.00 0.00 63 1010.5
20240612220303 74 90 2.6 10.4 0.00 0.00 0.00 62 1010.2
20240612215805 75 108 7.0 8.7 0.00 0.00 0.00 61 1010.4
20240612215528 76 216 2.6 7.8 0.00 0.00 0.00 62 1010.3
20240612214804 76 55 1.7 7.8 0.00 0.00 0.00 61 1010.4
20240612214302 76 155 3.5 7.0 0.00 0.00 0.00 60 1010.5
20240612213804 76 264 1.7 6.1 0.00 0.00 0.00 62 1010.2
20240612213302 75 169 0.0 6.1 0.00 0.00 0.00 62 1010.3
20240612212803 75 228 1.7 6.1 0.00 0.00 0.00 62 1010.6
20240612212520 76 240 0.0 6.1 0.00 0.00 0.00 62 1010.6
20240612211801 76 200 0.0 5.2 0.00 0.00 0.00 61 1010.3
20240612211749 76 254 1.7 5.2 0.00 0.00 0.00 61 1010.5
20240612210803 75 71 0.0 8.7 0.00 0.00 0.00 61 1010.4
20240612210301 75 90 2.6 8.7 0.00 0.00 0.00 62 1010.5
20240612205806 75 248 2.6 8.7 0.00 0.00 0.00 62 1010.6
20240612205306 76 99 1.7 9.6 0.00 0.00 0.00 62 1010.7
20240612204804 76 107 0.0 9.6 0.00 0.00 0.00 61 1010.7
20240612204521 76 330 1.7 7.8 0.00 0.00 0.00 61 1010.6
20240612203803 76 142 5.2 7.8 0.00 0.00 0.00 62 1010.7
20240612203519 76 197 4.3 7.8 0.00 0.00 0.00 62 1010.5
20240612202803 78 190 1.7 7.8 0.00 0.00 0.00 60 1010.7
20240612202520 78 16 1.7 8.7 0.00 0.00 0.00 61 1010.7
20240612201801 78 180 1.7 8.7 0.00 0.00 0.00 60 1010.9
20240612201301 78 126 7.8 7.8 0.00 0.00 0.00 60 1010.8
20240612200805 77 229 1.7 7.0 0.00 0.00 0.00 62 1010.8
20240612200534 78 87 0.0 9.6 0.00 0.00 0.00 61 1010.6
20240612195806 76 158 0.0 9.6 0.00 0.00 0.00 63 1011.1
20240612195305 76 172 0.0 8.7 0.00 0.00 0.00 64 1011.0
20240612194805 76 104 4.3 8.7 0.00 0.00 0.00 63 1011.1
20240612194301 77 60 0.0 6.1 0.00 0.00 0.00 63 1010.9
20240612194026 77 192 2.6 7.8 0.00 0.00 0.00 61 1010.9
20240612193302 77 68 2.6 11.3 0.00 0.00 0.00 63 1011.0
20240612192804 76 98 5.2 11.3 0.00 0.00 0.00 64 1011.3
20240612192306 76 95 3.5 11.3 0.00 0.00 0.00 63 1010.8
20240612191803 77 34 4.3 11.3 0.00 0.00 0.00 62 1011.1
20240612191301 77 92 5.2 11.3 0.00 0.00 0.00 62 1011.1
20240612190801 76 66 0.9 11.3 0.00 0.00 0.00 65 1011.3
20240612190305 78 66 1.7 8.7 0.00 0.00 0.00 62 1011.1
20240612185801 76 117 1.7 8.7 0.00 0.00 0.00 63 1011.4
20240612185301 77 108 3.5 6.1 0.00 0.00 0.00 63 1011.2
20240612184801 76 17 2.6 6.1 0.00 0.00 0.00 62 1011.1
20240612184301 77 90 3.5 7.0 0.00 0.00 0.00 61 1011.3
20240612183801 76 6 1.7 7.0 0.00 0.00 0.00 64 1011.1
20240612183302 76 26 1.7 3.5 0.00 0.00 0.00 66 1011.1
20240612182801 75 75 0.9 5.2 0.00 0.00 0.00 66 1011.4
20240612182508 75 95 1.7 5.2 0.00 0.00 0.00 66 1011.4
20240612182356 75 15 0.9 5.2 0.00 0.00 0.00 67 1011.3
20240612181306 74 334 0.0 3.5 0.00 0.00 0.00 67 1011.4
20240612180801 74 0 1.7 5.2 0.00 0.00 0.00 66 1011.5
20240612180304 74 127 1.7 5.2 0.00 0.00 0.00 64 1011.4
20240612175802 74 117 1.7 5.2 0.00 0.00 0.00 65 1011.8
20240612175301 74 93 2.6 4.3 0.00 0.00 0.00 64 1011.6
20240612174803 75 75 0.0 7.0 0.00 0.00 0.00 66 1011.9
20240612174524 74 352 0.0 7.0 0.00 0.00 0.00 64 1011.7
20240612173801 75 111 2.6 6.1 0.00 0.00 0.00 64 1011.7
20240612173301 75 335 6.1 6.1 0.00 0.00 0.00 64 1011.7
20240612172801 75 105 1.7 6.1 0.00 0.00 0.00 65 1011.6
20240612172305 75 23 0.0 6.1 0.00 0.00 0.00 64 1011.9
20240612171802 75 109 2.6 6.1 0.00 0.00 0.00 64 1011.9
20240612171301 75 22 1.7 4.3 0.00 0.00 0.00 62 1012.1
20240612170801 75 39 2.6 4.3 0.00 0.00 0.00 64 1012.0
20240612170302 75 29 0.0 4.3 0.00 0.00 0.00 64 1012.0
20240612170030 73 69 1.7 4.3 0.00 0.00 0.00 65 1012.0
20240612165305 73 135 2.6 5.2 0.00 0.00 0.00 64 1011.9
20240612165025 74 4 1.7 5.2 0.00 0.00 0.00 65 1012.0
20240612164748 74 115 0.0 6.1 0.00 0.00 0.00 64 1012.0
20240612163803 74 28 3.5 6.1 0.00 0.00 0.00 64 1011.8
20240612163301 74 127 2.6 6.1 0.00 0.00 0.00 63 1011.9
20240612162801 73 111 1.7 6.1 0.00 0.00 0.00 64 1012.1
20240612162524 74 117 1.7 5.2 0.00 0.00 0.00 64 1012.2
20240612162023 74 10 3.5 5.2 0.00 0.00 0.00 64 1011.9
20240612161756 73 332 5.2 5.2 0.00 0.00 0.00 64 1011.6
20240612160802 73 21 2.6 5.2 0.00 0.00 0.00 65 1012.0
20240612160302 74 356 1.7 4.3 0.00 0.00 0.00 65 1011.9
20240612155801 74 0 0.0 6.1 0.00 0.00 0.00 67 1012.0
20240612155305 74 345 1.7 6.1 0.00 0.00 0.00 66 1012.1
20240612154801 73 0 2.6 5.2 0.00 0.00 0.00 66 1011.9
20240612154743 74 11 3.5 6.1 0.00 0.00 0.00 64 1012.1
20240612153801 75 7 3.5 6.1 0.00 0.00 0.00 64 1012.0
20240612153301 74 18 2.6 6.1 0.00 0.00 0.00 62 1012.0
20240612152801 75 0 1.7 6.1 0.00 0.00 0.00 64 1011.9
20240612152301 74 13 5.2 6.1 0.00 0.00 0.00 64 1012.2
20240612152021 75 0 0.9 5.2 0.00 0.00 0.00 67 1012.1
20240612151301 73 30 2.6 5.2 0.00 0.00 0.00 68 1011.9
20240612150801 73 117 0.0 6.1 0.00 0.00 0.00 67 1012.0
20240612150301 72 357 2.6 8.7 0.00 0.00 0.00 67 1011.9
20240612145803 74 23 1.7 8.7 0.00 0.00 0.00 68 1011.8
20240612145305 75 0 0.9 7.0 0.00 0.00 0.00 66 1011.9
20240612144803 75 23 4.3 6.1 0.00 0.00 0.00 65 1011.7
20240612144301 75 348 1.7 7.8 0.00 0.00 0.00 67 1011.5
20240612143801 74 340 1.7 7.8 0.00 0.00 0.00 68 1011.4
20240612143303 74 26 3.5 7.0 0.00 0.00 0.00 65 1011.2
20240612142802 75 4 4.3 7.0 0.00 0.00 0.00 63 1011.2
20240612142305 74 35 3.5 7.0 0.00 0.00 0.00 65 1011.2
20240612142017 74 28 0.0 7.8 0.00 0.00 0.00 65 1011.3
20240612141301 74 75 0.9 7.8 0.00 0.00 0.00 67 1011.1
20240612140801 73 15 1.7 6.1 0.00 0.00 0.00 67 1011.3
20240612140303 74 23 2.6 6.1 0.00 0.00 0.00 68 1011.1
20240612135802 74 43 3.5 6.1 0.00 0.00 0.00 68 1011.3
20240612135305 74 10 0.0 7.0 0.00 0.00 0.00 69 1011.2
20240612134802 73 69 0.0 7.0 0.00 0.00 0.00 70 1011.2
20240612134301 74 75 2.6 5.2 0.00 0.00 0.00 68 1011.2
20240612133802 74 60 0.0 4.3 0.00 0.00 0.00 68 1011.1
20240612133524 75 63 1.7 5.2 0.00 0.00 0.00 69 1011.2
20240612132801 73 7 2.6 5.2 0.00 0.00 0.00 69 1011.0
20240612132301 73 17 5.2 5.2 0.00 0.00 0.00 67 1011.2
20240612131801 74 14 0.9 4.3 0.00 0.00 0.00 68 1011.3
20240612131301 73 4 4.3 5.2 0.00 0.00 0.00 70 1011.2
20240612130802 73 47 0.0 5.2 0.00 0.00 0.00 70 1011.3
20240612130302 73 16 1.7 4.3 0.00 0.00 0.00 68 1011.4
20240612125801 72 0 0.9 5.2 0.00 0.00 0.00 70 1011.3
20240612125301 71 12 2.6 5.2 0.00 0.00 0.00 72 1011.3
20240612124801 71 10 1.7 5.2 0.00 0.00 0.00 72 1011.2
20240612124302 72 30 2.6 5.2 0.00 0.00 0.00 70 1011.3
20240612123801 72 3 2.6 5.2 0.00 0.00 0.00 71 1011.1
20240612123301 71 8 1.7 5.2 0.00 0.00 0.00 73 1011.3
20240612122801 71 10 2.6 4.3 0.00 0.00 0.00 72 1011.3
20240612122301 71 15 2.6 3.5 0.00 0.00 0.00 71 1011.4
20240612121801 71 235 1.7 3.5 0.00 0.00 0.00 71 1011.4
20240612121301 71 254 0.0 2.6 0.00 0.00 0.00 71 1011.6
20240612121020 72 139 0.0 3.5 0.00 0.00 0.00 73 1011.4
20240612120301 70 210 0.0 3.5 0.00 0.00 0.00 74 1011.6
20240612120021 70 253 0.0 2.6 0.00 0.00 0.00 75 1011.6
20240612115305 71 90 0.0 3.5 0.00 0.00 0.00 73 1011.6
20240612114801 71 75 0.9 3.5 0.00 0.00 0.00 76 1011.7
20240612114301 69 99 0.0 3.5 0.00 0.00 0.00 76 1011.4
20240612113803 70 165 0.0 2.6 0.00 0.00 0.00 76 1011.5
20240612113302 68 166 0.0 2.6 0.00 0.00 0.00 78 1011.7
20240612112802 67 206 1.7 2.6 0.00 0.00 0.00 80 1011.6
20240612112301 67 173 0.0 2.6 0.00 0.00 0.00 80 1011.7
20240612111802 67 180 0.0 1.7 0.00 0.00 0.00 82 1011.7
20240612111302 65 90 0.0 2.6 0.00 0.00 0.00 84 1011.7
20240612110801 65 254 0.0 2.6 0.00 0.00 0.00 84 1011.8
20240612110301 65 166 0.0 2.6 0.00 0.00 0.00 86 1011.9
20240612105802 64 229 0.0 2.6 0.00 0.00 0.00 87 1011.8
20240612105524 64 180 0.0 2.6 0.00 0.00 0.00 88 1011.6
20240612105019 63 77 0.0 2.6 0.00 0.00 0.00 89 1012.0
20240612104301 63 99 0.0 1.7 0.00 0.00 0.00 90 1011.8
20240612103802 63 246 0.9 2.6 0.00 0.00 0.00 91 1011.9
20240612103526 62 98 0.0 2.6 0.00 0.00 0.00 92 1011.9
20240612102802 62 106 0.0 2.6 0.00 0.00 0.00 93 1012.0
20240612102306 61 84 1.7 2.6 0.00 0.00 0.00 93 1012.1
20240612102018 61 216 2.6 2.6 0.00 0.00 0.00 93 1011.9
20240612101301 61 82 0.0 2.6 0.00 0.00 0.00 93 1012.0
20240612100801 61 90 0.0 2.6 0.00 0.00 0.00 93 1012.1
20240612100302 61 270 0.0 1.7 0.00 0.00 0.00 93 1011.9
20240612100019 61 114 0.0 1.7 0.00 0.00 0.00 93 1012.0
20240612095521 61 180 0.0 1.7 0.00 0.00 0.00 92 1012.0
20240612094801 61 29 0.0 1.7 0.00 0.00 0.00 92 1012.3
20240612094301 62 175 1.7 3.5 0.00 0.00 0.00 93 1012.3
20240612093801 61 128 0.0 3.5 0.00 0.00 0.00 93 1012.0
20240612093301 61 29 0.0 1.7 0.00 0.00 0.00 93 1012.1
20240612092801 61 90 0.0 1.7 0.00 0.00 0.00 93 1012.0
20240612092301 61 40 1.7 1.7 0.00 0.00 0.00 92 1011.9
20240612091802 61 111 0.0 1.7 0.00 0.00 0.00 92 1012.2
20240612091301 61 337 0.0 1.7 0.00 0.00 0.00 92 1012.3
20240612091021 61 180 0.0 1.7 0.00 0.00 0.00 92 1012.0
20240612090301 61 192 1.7 3.5 0.00 0.00 0.00 92 1012.0
20240612085803 61 184 0.0 3.5 0.00 0.00 0.00 92 1012.0
20240612085305 61 264 0.0 3.5 0.00 0.00 0.00 92 1012.0
20240612085248 61 234 1.7 2.6 0.00 0.00 0.00 92 1011.9
20240612084301 61 246 0.9 2.6 0.00 0.00 0.00 92 1011.9
20240612083801 61 180 0.0 2.6 0.00 0.00 0.00 92 1012.0
20240612083301 61 241 0.0 2.6 0.00 0.00 0.00 92 1011.9
20240612083026 61 279 0.0 2.6 0.00 0.00 0.00 92 1011.9
20240612082305 61 166 0.0 2.6 0.00 0.00 0.00 92 1012.0
20240612081801 61 131 0.0 2.6 0.00 0.00 0.00 91 1011.9
20240612081301 61 121 2.6 2.6 0.00 0.00 0.00 91 1012.1
20240612080802 61 69 0.0 2.6 0.00 0.00 0.00 91 1011.8
20240612080744 61 69 0.0 2.6 0.00 0.00 0.00 91 1011.7
20240612075802 61 102 1.7 2.6 0.00 0.00 0.00 91 1011.8
20240612075301 61 180 0.0 1.7 0.00 0.00 0.00 91 1011.9